Location: Wapato
(46.4478°N, 120.4212°W)
Time: 22:45:27
(UTC+00:00)

Vanguard 1 Rocket - Pass Details

Date: 16 May 2026
Orbit: 656 x 4211 km, 34.3° (Epoch: 2 June)

Event Time Altitude Azimuth Distance (km) Brightness Sun altitude
Rises 23:02:18 0° 232° (SW) 4,050 11.5 43.7°
Reaches altitude 10° 23:04:44 10° 224° (SW) 3,389 11.2 43.3°
Maximum altitude 23:12:56 41° 157° (SSE) 2,684 10.2 42.0°
Drops below altitude 10° 23:27:52 10° 96° (E) 6,084 11.2 39.5°
Sets 23:34:04 0° 91° (E) 7,622 11.6 38.4°
